{"data":{"norad_id":45531,"intl_designator":"2020-025A","name":"STARLINK-1329","alt_names":[],"object_type":"PAYLOAD","status":"ACTIVE","operator":null,"country":"US","launch_date":"2020-04-22","launch_site_code":"AFETR","launch_vehicle":null,"mission":null,"orbit_class":"UNKNOWN","rcs_meters":null,"size_class":null,"mass_kg":null,"dimensions":null,"purposes":["comms"],"wikipedia_slug":null,"has_3d_model":false,"image_url":null,"decayed_at":null,"tle_current":{"epoch":"2026-05-25T03:40:16.093920Z","epoch_age_seconds":72216,"freshness":"FRESH","line1":"1 45531U 20025A   26145.15296405  .00063640  00000+0  49493-3 0  9997","line2":"2 45531  53.0421  65.3999 0004734  92.4475 267.7084 15.71164725337438","mean_motion":15.71164725,"eccentricity":0.0004734,"inclination_deg":53.0421,"raan_deg":65.3999,"arg_perigee_deg":92.4475,"mean_anomaly_deg":267.7084,"bstar":0.00049493,"rev_number":33743,"period_min":91.651752173853,"perigee_km":352.37936108198,"apogee_km":358.75483212064,"semimajor_km":6733.7040966013,"source":"CELESTRAK","updated_at":"2026-05-25T13:38:16.420713Z"}}}